Location: Trois-Rivi�res
(46.3500°N, 72.5500°W)
Time: 15:19:56
(UTC-05:00)

OTV 5 (USA 277) - Visible Passes

Search period start: 18 February 2018 00:00
Search period end: 28 February 2018 00:00
Orbit: 404 x 417 km, 43.0° (Epoch: 07 September)

Date Brightness Start Highest point End Pass type
(mag) Time Alt. Az. Time Alt. Az. Time Alt. Az.
19 Feb ? 06:15:19 10° SSW 06:17:26 16° SSE 06:19:34 10° ESE visible
20 Feb ? 05:25:20 10° S 05:26:34 12° SSE 05:27:48 10° SE visible
21 Feb ? 06:09:28 10° SW 06:12:18 27° SSE 06:15:10 10° E visible
22 Feb ? 05:19:05 11° SSW 05:21:23 21° SSE 05:23:58 10° ESE visible
23 Feb ? 04:30:35 16° SSE 04:30:35 16° SSE 04:32:37 10° ESE visible
23 Feb ? 06:04:11 10° WSW 06:07:17 39° S 06:10:24 10° E visible
24 Feb ? 05:14:44 21° SW 05:16:19 33° SSE 05:19:20 10° E visible
25 Feb ? 04:26:04 25° SE 04:26:04 25° SE 04:28:12 10° E visible
25 Feb ? 05:59:09 10° WSW 06:02:20 46° S 06:05:31 10° ESE visible
26 Feb ? 05:10:07 29° SW 05:11:20 44° S 05:14:29 10° E visible
27 Feb ? 04:21:23 30° SE 04:21:23 30° SE 04:23:26 10° E visible
27 Feb ? 05:54:14 10° W 05:57:23 43° S 06:00:31 10° ESE visible
